Location: Newark
(27.9675°N, 86.8869°E)
Time: 09:39:33
(UTC+00:00)

Altair - Pass Details

Date: 23 October 2019
Orbit: 1502 x 1682 km, 47.2° (Epoch: 13 November)

Event Time Altitude Azimuth Distance (km) Brightness Sun altitude
Rises 03:06:01 0° 223° (SW) 4,635 10.0 33.0°
Reaches altitude 10° 03:09:00 10° 223° (SW) 3,667 9.5 33.5°
Maximum altitude 03:18:16 83° 137° (SE) 1,560 8.4 35.1°
Drops below altitude 10° 03:27:54 10° 50° (NE) 3,803 9.8 36.7°
Sets 03:31:03 0° 50° (NE) 4,814 10.2 37.2°
